星链-5455 (STARLINK-5455 )

导读

STARLINK-5455是美国SpaceX公司星链(Starlink)项目的低轨通信卫星,于2023年2月17日发射入轨,属于星链第二代星座的组成部分。星链项目旨在构建全球低轨卫星互联网,为全球偏远、基础设施匮乏地区提供高速低延迟宽带服务。STARLINK-5455依托星链先进的星间激光链路技术,助力提升星座网络覆盖与通信性能,是目前全球最大卫星星座的一员。

基本信息
目录编号:
55668
目录名称:
STARLINK-5455
国际标识:
2023-021AS
轨道中心:
EARTH
卫星名称:
星链-5455
卫星全名:
星链-5455 (STARLINK-5455 )
卫星状态:
在轨 (已飞行1214 天)
发射日期:
2023-02-17 UTC
国别 :
美国 (US)
星等 :
--
轨道信息
数据来源 国际轨道数据 AOE轨道数据
星历时间 2026-06-14T23:05:59+0800
13小时前
查看轨道信息
2026-06-13T06:00:00+0800
2天前
查看轨道信息
半长轴 6950.194km 6950.194km
偏心率 0.0003123 0.0003126
轨道倾角 70.000° 70.000°
近地点辐角 269.234° 271.490°
升交点赤经 280.095° 284.409°
平近点角 90.847° 214.079°
近地点 569.886km 569.884km
远地点 574.228km 574.23km
周期 96.107分钟 96.107分钟
每日圈数 14.983297 14.983298
详细信息
固有亮度:
5
最大亮度:
2.5
卫星平台:
Starlink v1.5
覆盖范围:
全球
运营商:
太空探索技术公司
运营商所在国:
美国
制造商(研发单位):
太空探索技术公司
制造商所在国:
美国
使用方式:
暂无
卫星简介
星链(Starlink)计划是由太空探索技术公司(SpaceX)提出的一个巨型低轨卫星互联网星座项目,计划在2019年至2024年间在太空搭建由约1.2万颗卫星组成的“星链”网络,其中1584颗将部署在地球上空550千米处的近地轨道,并从2020年开始工作。该卫星仍在工作。
2D轨道图
3D轨道图
轨道高度分析图
轨道倾角分析图
轨道综合分析图
查看轨道综合分析图